CW8014 Weather Reports


time (UTC)temp
C
wind
direction
speed
KPH
gust
KPH
rain 1hr
cm
rain 24hr
cm
rain mn
cm
humidity
%
barometer
mb
20260903205409 18 230 1.6 8.0 0.00 0.03 0.03 87 1015.4
20260903204409 18 197 3.2 8.0 0.00 0.03 0.03 86 1015.3
20260903203409 18 268 3.2 9.7 0.00 0.03 0.03 86 1015.3
20260903202410 18 220 4.8 16.1 0.00 0.03 0.03 85 1015.2
20260903201409 18 242 3.2 8.0 0.00 0.03 0.03 85 1015.5
20260903200409 18 226 3.2 11.3 0.00 0.03 0.03 85 1015.5
20260903195409 18 249 4.8 11.3 0.00 0.03 0.03 85 1015.6
20260903194409 17 248 3.2 8.0 0.00 0.03 0.03 85 1015.4
20260903193409 17 226 3.2 6.4 0.00 0.03 0.03 84 1015.5
20260903190410 18 243 4.8 12.9 0.00 0.03 0.03 83 1015.5
20260903185409 18 204 3.2 9.7 0.00 0.03 0.03 82 1015.7
20260903184409 18 279 4.8 11.3 0.00 0.03 0.03 81 1015.4
20260903183409 18 246 4.8 12.9 0.00 0.03 0.03 81 1015.5
20260903182409 19 250 6.4 20.9 0.00 0.03 0.03 80 1015.2
20260903181409 19 250 6.4 14.5 0.00 0.03 0.03 80 1015.3
20260903180409 19 282 4.8 11.3 0.00 0.03 0.03 81 1015.4
20260903174409 20 288 4.8 11.3 0.00 0.03 0.03 80 1015.2
20260903172411 20 304 8.0 19.3 0.00 0.03 0.03 78 1015.4
20260903171409 20 271 8.0 19.3 0.00 0.03 0.03 78 1015.1
20260903165410 20 281 11.3 24.1 0.00 0.03 0.03 77 1015.0
20260903164409 20 226 9.7 25.7 0.00 0.03 0.03 77 1015.0
20260903163409 20 262 11.3 19.3 0.00 0.03 0.03 77 1015.0
20260903162409 21 271 12.9 27.4 0.00 0.03 0.03 76 1015.0
20260903161409 21 296 8.0 17.7 0.00 0.03 0.03 77 1015.0
20260903160409 21 327 12.9 32.2 0.00 0.03 0.03 75 1015.0
20260903155411 21 263 14.5 33.8 0.00 0.03 0.03 73 1014.9
20260903154410 21 287 12.9 32.2 0.00 0.03 0.03 75 1014.6
20260903153410 21 281 16.1 30.6 0.00 0.03 0.03 73 1014.7
20260903130403 22 268 11.3 24.1 0.00 0.03 0.03 76 1014.1
20260903125403 22 258 11.3 24.1 0.00 0.15 0.03 77 1014.1
20260903124404 22 226 12.9 30.6 0.00 0.15 0.03 78 1013.9
20260903123403 22 297 14.5 30.6 0.00 0.15 0.03 78 1013.9
20260903122403 21 246 9.7 24.1 0.00 0.15 0.03 80 1013.9
20260903121403 21 239 12.9 22.5 0.00 0.15 0.03 80 1013.8
20260903120404 21 261 9.7 20.9 0.00 0.15 0.03 82 1013.8
20260903115405 21 248 12.9 30.6 0.00 0.15 0.03 82 1013.8
20260903114403 21 234 8.0 20.9 0.00 0.15 0.03 84 1013.7
20260903113403 21 264 11.3 22.5 0.03 0.15 0.03 85 1013.5
20260903112404 21 183 8.0 24.1 0.03 0.15 0.03 86 1013.3
20260903111404 21 229 9.7 27.4 0.03 0.15 0.03 88 1013.6
20260903103403 20 244 6.4 17.7 0.00 0.15 0.00 90 1014.0
20260903102403 20 218 9.7 20.9 0.00 0.15 0.00 89 1014.1
20260903101405 20 197 9.7 17.7 0.00 0.15 0.00 90 1013.9
20260903100403 19 185 6.4 17.7 0.00 0.15 0.00 92 1013.9
20260903095404 18 265 6.4 17.7 0.00 0.15 0.00 92 1014.0
20260903094405 18 193 8.0 19.3 0.00 0.15 0.00 92 1014.0
20260903093404 18 23 6.4 14.5 0.00 0.15 0.00 91 1014.1
20260903091404 18 186 6.4 14.5 0.00 0.15 0.00 91 1013.9
20260903084404 18 178 4.8 14.5 0.00 0.15 0.00 92 1014.1
20260903083404 18 201 6.4 17.7 0.00 0.15 0.00 91 1014.2
20260903081404 18 238 6.4 19.3 0.00 0.15 0.00 88 1014.1
20260903075405 18 144 4.8 20.9 0.00 0.15 0.00 88 1014.0
20260903074404 18 168 8.0 25.7 0.00 0.15 0.00 88 1014.0
20260903073404 18 111 8.0 22.5 0.00 0.15 0.00 88 1014.0
20260903072405 18 184 9.7 29.0 0.00 0.15 0.00 88 1013.9
20260903071404 17 284 8.0 20.9 0.00 0.15 0.00 88 1014.0
20260903065404 17 143 8.0 19.3 0.00 0.15 0.00 88 1014.0
20260903064405 17 174 6.4 22.5 0.00 0.15 0.00 88 1013.8
20260903063404 17 146 8.0 14.5 0.00 0.15 0.00 88 1013.9
20260903062404 17 190 6.4 17.7 0.00 0.15 0.00 87 1014.2
20260903061404 17 230 8.0 24.1 0.00 0.15 0.00 86 1014.3
20260903055404 17 185 8.0 22.5 0.00 0.15 0.00 85 1014.3
20260903054404 17 202 8.0 16.1 0.00 0.15 0.00 85 1014.5
20260903053404 17 242 6.4 12.9 0.00 0.15 0.00 84 1014.5
20260903052404 17 202 8.0 19.3 0.00 0.15 0.00 84 1014.2
20260903051404 17 206 8.0 16.1 0.00 0.15 0.00 84 1014.2
20260903050405 17 197 6.4 17.7 0.00 0.15 0.00 84 1014.5
20260903044404 17 153 8.0 17.7 0.00 0.15 0.00 84 1014.4
20260903043404 17 162 8.0 25.7 0.00 0.15 0.00 84 1014.6
20260903042404 17 185 9.7 24.1 0.00 0.15 0.00 83 1014.5
20260903040404 17 222 9.7 20.9 0.00 0.15 0.00 84 1014.8
20260903035409 17 213 9.7 22.5 0.00 0.15 0.00 84 1015.0
20260903033409 17 194 8.0 22.5 0.00 0.15 0.00 85 1015.0
20260903032409 17 133 6.4 12.9 0.00 0.15 0.00 86 1015.2
20260903031410 16 171 8.0 24.1 0.00 0.15 0.00 87 1015.3
20260903030409 16 180 8.0 14.5 0.00 0.15 0.00 88 1015.2
20260903025409 16 166 8.0 20.9 0.00 0.15 0.00 90 1015.3
20260903024409 16 169 6.4 14.5 0.00 0.15 0.00 91 1015.4
20260903023409 16 167 6.4 16.1 0.00 0.15 0.00 92 1015.6
20260903021410 16 165 8.0 16.1 0.00 0.15 0.00 93 1015.8
20260903020409 16 157 8.0 14.5 0.00 0.15 0.00 93 1016.1
20260903015409 16 150 6.4 14.5 0.00 0.15 0.00 93 1016.2
20260903014409 16 180 6.4 14.5 0.00 0.15 0.00 93 1016.3
20260903013409 16 165 6.4 14.5 0.00 0.15 0.00 93 1016.4
20260903011409 16 165 6.4 14.5 0.00 0.15 0.00 92 1016.8
20260903010409 16 158 6.4 12.9 0.00 0.15 0.00 92 1016.9
20260903005409 16 150 6.4 14.5 0.00 0.15 0.00 92 1017.0
20260903004409 16 189 4.8 12.9 0.00 0.15 0.00 91 1017.1
20260903003410 16 173 6.4 12.9 0.00 0.15 0.00 90 1017.3
20260903002409 16 178 6.4 17.7 0.00 0.15 0.00 88 1017.5
20260903001409 17 173 4.8 14.5 0.00 0.15 0.00 85 1017.6
20260903000410 17 215 3.2 9.7 0.00 0.15 0.00 84 1017.6
20260902235409 17 275 6.4 17.7 0.00 0.15 0.00 83 1017.7
20260902233409 17 169 4.8 14.5 0.00 0.15 0.00 85 1017.8
20260902232409 17 152 8.0 27.4 0.00 0.15 0.00 86 1017.9
20260902231410 17 221 4.8 11.3 0.00 0.15 0.00 87 1018.0
20260902225409 17 177 3.2 9.7 0.00 0.15 0.00 87 1018.2
20260902224409 17 190 4.8 9.7 0.00 0.15 0.00 86 1018.3
20260902223409 17 188 3.2 6.4 0.00 0.15 0.00 86 1018.4
20260902222409 17 169 3.2 8.0 0.00 0.15 0.00 87 1018.4
20260902221409 17 183 4.8 14.5 0.00 0.15 0.00 87 1018.5
20260902220409 17 175 4.8 9.7 0.00 0.15 0.00 87 1018.5
20260902215409 17 163 4.8 9.7 0.00 0.15 0.15 87 1018.6
20260902214409 17 165 3.2 8.0 0.00 0.15 0.15 87 1018.6
20260902213410 17 196 3.2 8.0 0.00 0.15 0.15 88 1018.5
20260902212409 17 178 3.2 8.0 0.00 0.15 0.15 87 1018.6
20260902211410 17 170 3.2 11.3 0.00 0.15 0.15 87 1018.6
20260902210409 17 173 3.2 8.0 0.00 0.15 0.15 87 1018.7